Tracking 25656 objects as of 21-May-2022
HD Live streaming from Space Station
objects crossing your sky now

COSMOS 1275 DEB

Track COSMOS 1275 DEB now!
10-day predictions


NORAD ID: 13808
Int'l Code: 1981-053HF
Perigee: 895.7 km
Apogee: 990.9 km
Inclination: 83.0 °
Period: 103.8 minutes
Semi major axis: 7314 km
RCS: 0.015 m2 (small)
Launch date: June 4, 1981
Source: Commonwealth of Independent States (former USSR) (CIS)
Launch site: PLESETSK MISSILE AND SPACE COMPLEX (PKMTR)

Note: This is SATELLITE DEBRIS
aabbcc
Your satellite tracking list
Your tracking list is empty




NASA's NSSDC Master Catalog

Two Line Element Set (TLE):
1 13808U 81053HC  22140.58685028  .00001650  00000-0  13532-2 0  9996
2 13808  83.0367  17.2123 0065069  80.4957 301.8654 13.87862618983382
Source of the keplerian elements: AFSPC